1503525600.05,35071,16.5,73976.8,-4.21,-35.89,-36.13,0,*57
1503525601.31,35072,16.5,73976.0,-4.23,-35.89,-36.25,0,*53
1503525602.58,35073,16.5,73974.3,-4.23,-35.95,-36.31,0,*5A
1503525603.84,35074,16.5,73974.3,-4.23,-36.13,-36.43,0,*55
1503525605.13,35075,16.5,73976.0,-4.23,-35.95,-36.25,0,*59
1503525606.39,35076,16.5,73974.8,-4.23,-35.89,-36.13,0,*52
1503525607.66,35077,16.5,73974.0,-4.23,-35.71,-36.25,0,*51
1503525608.92,35078,16.5,73978.5,-4.23,-36.13,-36.31,0,*5C
1503525610.2,35079,16.5,73974.3,-4.23,-36.13,-36.49,0,*52
1503525611.43,35080,16.5,73978.5,-4.23,-35.89,-36.07,0,*5E
1503525612.68,35081,16.5,73978.3,-4.23,-35.89,-35.89,0,*5A
1503525613.92,35082,16.5,73974.5,-4.23,-35.89,-36.07,0,*5C
1503525615.18,35083,16.5,73976.3,-4.23,-35.89,-36.13,0,*58
1503525616.45,35084,16.5,73976.5,-4.21,-35.65,-35.95,0,*52
1503525617.72,35085,16.5,73974.3,-4.23,-35.77,-35.95,0,*52
1503525619.01,35086,16.44,73974.3,-4.23,-35.95,-36.13,0,*50
1503525620.28,35087,16.5,73976.8,-4.23,-35.89,-36.25,0,*59
1503525621.53,35088,16.5,73976.3,-4.23,-35.77,-35.89,0,*52
1503525622.79,35089,16.5,73978.3,-4.23,-35.71,-36.13,0,*55
1503525624.01,35090,16.5,73976.8,-4.21,-35.47,-35.89,0,*5A
1503525625.26,35091,16.5,73974.5,-4.23,-35.71,-35.77,0,*5D
1503525626.51,35092,16.44,73974.8,-4.21,-35.71,-35.95,0,*50
1503525627.75,35093,16.5,73974.3,-4.21,-35.71,-35.95,0,*51
1503525629.02,35094,16.5,73974.5,-4.23,-35.53,-35.89,0,*59
1503525630.25,35095,16.5,73974.8,-4.23,-35.77,-36.07,0,*5B
1503525631.49,35096,16.5,73972.5,-4.23,-35.77,-36.07,0,*58
1503525632.76,35097,16.5,73978.3,-4.21,-35.65,-35.95,0,*50
1503525634.01,35098,16.44,73972.8,-4.23,-35.47,-35.89,0,*50
1503525635.27,35099,16.5,73974.8,-4.23,-35.53,-35.89,0,*54
1503525636.56,35100,16.44,73974.5,-4.23,-35.65,-35.95,0,*5D
1503525637.81,35101,16.5,73972.8,-4.21,-35.77,-35.95,0,*5D
1503525639.06,35102,16.44,73974.0,-4.21,-35.65,-35.89,0,*50
1503525640.28,35103,16.5,73972.8,-4.21,-35.71,-35.89,0,*54
1503525641.57,35104,16.5,73972.5,-4.23,-35.65,-35.95,0,*59
1503525642.83,35105,16.5,73974.0,-4.21,-35.77,-35.95,0,*59
1503525644.1,35106,16.5,73972.8,-4.21,-35.65,-35.95,0,*59
1503525645.34,35107,16.5,73974.0,-4.21,-35.77,-36.13,0,*56
1503525646.56,35108,16.5,73978.0,-4.21,-35.77,-36.07,0,*5C
1503525647.81,35109,16.44,73974.0,-4.21,-35.77,-35.95,0,*55
1503525649.08,35110,16.5,73976.5,-4.23,-35.89,-36.25,0,*56
1503525650.34,35111,16.44,73972.8,-4.23,-35.95,-36.31,0,*5F
1503525651.56,35112,16.5,73972.5,-4.21,-35.89,-36.31,0,*53
1503525652.82,35113,16.44,73972.0,-4.23,-35.71,-36.13,0,*57
1503525654.09,35114,16.5,73976.5,-4.23,-35.95,-36.31,0,*5A
1503525655.33,35115,16.5,73974.3,-4.21,-35.89,-36.25,0,*51
1503525656.6,35116,16.5,73972.8,-4.23,-35.77,-36.25,0,*51
1503525657.87,35117,16.5,73974.8,-4.23,-35.95,-36.31,0,*59
1503525659.14,35118,16.44,73972.8,-4.21,-35.95,-36.25,0,*51
1503525660.41,35119,16.44,73974.8,-4.23,-35.77,-36.13,0,*5B
1503525661.64,35120,16.5,73974.0,-4.23,-36.07,-36.43,0,*50
1503525662.88,35121,16.44,73974.8,-4.23,-36.07,-36.43,0,*51
1503525664.12,35122,16.44,73974.8,-4.23,-36.07,-36.43,0,*52
1503525665.39,35123,16.5,73972.5,-4.23,-35.77,-36.25,0,*57
1503525666.66,35124,16.5,73978.3,-4.23,-35.89,-36.25,0,*51
1503525667.9,35125,16.5,73974.3,-4.23,-35.77,-36.31,0,*54
1503525669.17,35126,16.44,73974.3,-4.23,-35.95,-36.31,0,*5B
1503525670.46,35127,16.44,73972.3,-4.23,-35.95,-36.25,0,*5F
1503525671.72,35128,16.44,73972.3,-4.23,-35.71,-36.13,0,*5F
1503525673.01,35129,16.5,73976.5,-4.23,-35.65,-35.95,0,*56
1503525674.25,35130,16.5,73974.3,-4.23,-35.77,-36.07,0,*55
1503525675.52,35131,16.44,73972.8,-4.23,-35.71,-35.95,0,*5A
1503525676.78,35132,16.5,73972.8,-4.23,-35.53,-35.77,0,*55
1503525678.04,35133,16.5,73974.5,-4.23,-35.53,-35.89,0,*55
1503525679.28,35134,16.5,73974.0,-4.25,-35.35,-35.71,0,*53
1503525680.54,35135,16.5,73976.5,-4.23,-35.71,-36.13,0,*53
1503525681.8,35136,16.44,73970.8,-4.23,-35.77,-36.13,0,*56
1503525683.04,35137,16.44,73974.0,-4.21,-35.89,-36.13,0,*54
1503525684.28,35138,16.5,73974.3,-4.23,-35.71,-36.07,0,*5B
1503525685.52,35139,16.44,73974.5,-4.23,-35.47,-35.89,0,*5A
1503525686.78,35140,16.44,73974.8,-4.23,-35.65,-36.07,0,*51
1503525688.07,35141,16.5,73978.0,-4.23,-35.65,-35.95,0,*58
1503525689.34,35142,16.5,73972.8,-4.23,-35.77,-36.25,0,*50
1503525690.63,35143,16.44,73974.8,-4.23,-35.95,-36.25,0,*5D
1503525691.89,35144,16.5,73974.8,-4.23,-35.89,-36.13,0,*52
1503525693.13,35145,16.5,73976.5,-4.23,-35.89,-36.31,0,*53
1503525694.37,35146,16.44,73972.0,-4.23,-36.07,-36.31,0,*55
1503525695.65,35147,16.5,73972.8,-4.23,-36.13,-36.49,0,*5E
1503525696.89,35148,16.5,73974.3,-4.25,-36.13,-36.55,0,*5A
1503525698.13,35149,16.5,73974.3,-4.25,-36.13,-36.31,0,*59
1503525699.36,35150,16.5,73972.5,-4.25,-35.83,-36.19,0,*51
1503525700.63,35151,16.5,73976.8,-4.25,-35.95,-36.37,0,*5B
1503525701.88,35152,16.44,73972.0,-4.25,-36.13,-36.49,0,*5C
1503525703.12,35153,16.5,73978.3,-4.25,-36.01,-36.37,0,*57
1503525704.4,35154,16.44,73972.3,-4.27,-36.13,-36.49,0,*58
1503525705.62,35155,16.44,73974.0,-4.25,-36.01,-36.31,0,*57
1503525706.91,35156,16.44,73972.5,-4.27,-35.83,-36.13,0,*5F
1503525708.17,35157,16.44,73974.8,-4.25,-35.95,-36.37,0,*5D
1503525709.46,35158,16.44,73972.8,-4.27,-36.13,-36.49,0,*54
1503525710.72,35159,16.5,73974.8,-4.27,-36.01,-36.49,0,*56
1503525712.01,35160,16.44,73970.8,-4.27,-35.95,-36.37,0,*5B
1503525713.27,35161,16.5,73976.0,-4.27,-35.77,-36.13,0,*50
1503525714.56,35162,16.5,73978.3,-4.27,-35.83,-36.13,0,*58
1503525715.85,35163,16.5,73972.0,-4.27,-35.53,-35.83,0,*5E
1503525717.11,35164,16.5,73972.5,-4.27,-35.35,-35.59,0,*5E
1503525718.37,35165,16.44,73972.3,-4.25,-35.41,-35.95,0,*5E
1503525719.62,35166,16.44,73972.8,-4.25,-35.71,-35.95,0,*5E
1503525720.86,35167,16.5,73974.3,-4.27,-35.71,-36.01,0,*53
1503525722.13,35168,16.44,73970.0,-4.27,-35.83,-36.31,0,*52
1503525723.35,35169,16.44,73974.0,-4.25,-35.77,-36.31,0,*5A
1503525724.62,35170,16.44,73972.0,-4.27,-35.71,-35.95,0,*5B
1503525725.87,35171,16.44,73972.8,-4.27,-35.71,-36.01,0,*54
1503525727.16,35172,16.5,73976.0,-4.27,-35.83,-36.13,0,*59
1503525728.4,35173,16.44,73974.3,-4.27,-35.77,-36.01,0,*50
1503525729.64,35174,16.44,73972.0,-4.25,-35.35,-35.59,0,*5D
1503525730.88,35175,16.5,73974.5,-4.25,-35.23,-35.59,0,*5B
1503525732.12,35176,16.5,73972.0,-4.27,-35.59,-36.01,0,*59
1503525733.36,35177,16.44,73972.5,-4.27,-35.71,-36.01,0,*52
1503525734.6,35178,16.5,73972.5,-4.25,-35.83,-36.19,0,*5B
1503525735.89,35179,16.44,73972.8,-4.27,-35.95,-36.37,0,*53
1503525737.13,35180,16.44,73970.5,-4.27,-35.77,-36.31,0,*5F
1503525738.39,35181,16.5,73972.8,-4.25,-35.41,-35.83,0,*53
1503525739.65,35182,16.44,73970.8,-4.25,-35.53,-35.83,0,*53
1503525740.92,35183,16.5,73972.5,-4.27,-35.71,-36.13,0,*5A
1503525742.16,35184,16.44,73974.5,-4.25,-35.83,-36.31,0,*52
1503525743.42,35185,16.44,73974.5,-4.25,-35.95,-36.37,0,*52
1503525744.69,35186,16.44,73972.3,-4.27,-35.95,-36.31,0,*55
1503525745.95,35187,16.44,73974.3,-4.25,-35.41,-35.95,0,*52
1503525747.17,35188,16.44,73972.0,-4.25,-35.71,-36.01,0,*50
1503525748.41,35189,16.5,73972.0,-4.25,-35.77,-36.13,0,*54
1503525749.65,35190,16.44,73970.3,-4.25,-35.95,-36.19,0,*5A
1503525750.94,35191,16.44,73970.0,-4.23,-35.65,-35.95,0,*55
1503525752.2,35192,16.44,73968.5,-4.25,-35.41,-35.83,0,*51
1503525753.49,35193,16.5,73972.3,-4.27,-35.41,-35.83,0,*52
1503525754.75,35194,16.44,73968.8,-4.25,-35.53,-35.83,0,*54
1503525755.98,35195,16.44,73968.8,-4.25,-35.41,-35.71,0,*5B
1503525757.24,35196,16.44,73970.8,-4.25,-35.41,-35.83,0,*55
1503525758.49,35197,16.44,73972.5,-4.25,-35.59,-35.95,0,*5A
1503525759.75,35198,16.44,73970.3,-4.23,-35.53,-35.89,0,*54
1503525761.02,35199,16.44,73970.8,-4.23,-35.65,-35.89,0,*50
1503525762.29,35200,16.44,73972.0,-4.23,-35.71,-35.95,0,*5B
1503525763.56,35201,16.44,73970.0,-4.23,-35.77,-35.95,0,*5C
1503525764.85,35202,16.44,73970.5,-4.23,-35.65,-35.95,0,*5C
1503525766.11,35203,16.44,73974.5,-4.23,-35.77,-36.13,0,*53
1503525767.35,35204,16.44,73972.5,-4.25,-35.95,-36.19,0,*54
1503525768.64,35205,16.44,73968.0,-4.27,-35.83,-36.37,0,*5C
1503525769.87,35206,16.44,73972.8,-4.25,-36.01,-36.37,0,*54
1503525771.09,35207,16.44,73974.3,-4.25,-36.01,-36.31,0,*53
1503525772.35,35208,16.44,73970.0,-4.27,-36.01,-36.37,0,*58
1503525773.59,35209,16.5,73972.5,-4.25,-35.95,-36.31,0,*53
1503525774.85,35210,16.44,73972.0,-4.27,-36.01,-36.37,0,*51
1503525776.09,35211,16.44,73972.5,-4.25,-35.95,-36.31,0,*5A
1503525777.37,35212,16.44,73972.3,-4.27,-36.13,-36.37,0,*50
1503525778.62,35213,16.44,73974.0,-4.27,-36.01,-36.31,0,*54
1503525779.88,35214,16.44,73974.0,-4.27,-36.01,-36.37,0,*55
1503525781.14,35215,16.44,73972.8,-4.27,-36.01,-36.37,0,*54
1503525782.42,35216,16.44,73968.0,-4.27,-36.13,-36.37,0,*54
1503525783.65,35217,16.44,73968.8,-4.27,-35.71,-36.19,0,*5E
1503525784.92,35218,16.44,73970.5,-4.27,-35.95,-36.19,0,*5B
1503525786.17,35219,16.44,73970.8,-4.29,-36.01,-36.25,0,*55
1503525787.41,35220,16.5,73972.5,-4.29,-36.07,-36.25,0,*59
1503525788.66,35221,16.44,73972.0,-4.29,-36.01,-36.25,0,*5E
1503525789.88,35222,16.44,73970.8,-4.29,-35.77,-36.07,0,*5F
1503525791.12,35223,16.44,73974.8,-4.27,-35.59,-36.01,0,*5A
1503525792.38,35224,16.44,73974.8,-4.27,-35.41,-35.71,0,*50
1503525793.61,35225,16.5,73972.5,-4.25,-35.41,-35.71,0,*53
1503525794.85,35226,16.44,73968.3,-4.27,-35.71,-36.01,0,*55
1503525796.11,35227,16.44,73974.0,-4.27,-36.01,-36.37,0,*55
1503525797.38,35228,16.44,73972.8,-4.27,-35.95,-36.31,0,*52
1503525798.62,35229,16.44,73974.5,-4.29,-36.07,-36.37,0,*53
1503525799.86,35230,16.44,73972.3,-4.29,-36.07,-36.37,0,*5B
1503525801.1,35231,16.44,73970.3,-4.29,-36.01,-36.37,0,*5C
1503525802.35,35232,16.44,73972.8,-4.29,-35.89,-36.25,0,*5F
1503525803.56,35233,16.44,73974.3,-4.33,-36.07,-36.43,0,*50
1503525804.8,35234,16.44,73972.8,-4.29,-36.01,-36.37,0,*59
1503525806.02,35235,16.44,73970.5,-4.29,-36.01,-36.43,0,*5B
1503525807.28,35236,16.44,73972.5,-4.29,-35.83,-36.37,0,*52
1503525808.51,35237,16.44,73970.5,-4.29,-35.77,-36.01,0,*5D
1503525809.74,35238,16.44,73974.5,-4.29,-35.47,-35.89,0,*52
1503525810.96,35239,16.44,73974.5,-4.29,-35.47,-35.77,0,*52
1503525812.18,35240,16.44,73970.3,-4.29,-35.59,-35.89,0,*52
1503525813.4,35241,16.44,73972.0,-4.29,-35.59,-35.89,0,*53
1503525814.62,35242,16.44,73968.8,-4.29,-35.77,-36.07,0,*59
1503525815.87,35243,16.5,73972.5,-4.29,-36.07,-36.25,0,*5C
1503525817.11,35244,16.44,73972.3,-4.29,-36.07,-36.37,0,*58
1503525818.32,35245,16.44,73974.0,-4.33,-36.01,-36.43,0,*57
1503525819.54,35246,16.44,73974.0,-4.29,-36.19,-36.43,0,*56
1503525820.76,35247,16.44,73972.8,-4.33,-36.07,-36.55,0,*54
1503525821.98,35248,16.5,73972.3,-4.33,-36.07,-36.55,0,*5B
1503525823.2,35249,16.44,73970.3,-4.33,-36.19,-36.43,0,*52
1503525824.41,35250,16.44,73970.8,-4.33,-36.19,-36.43,0,*5A
1503525825.63,35251,16.44,73968.8,-4.29,-36.07,-36.43,0,*5F
1503525826.85,35252,16.44,73970.3,-4.33,-36.07,-36.43,0,*57
1503525828.08,35253,16.44,73970.0,-4.33,-36.07,-36.37,0,*55
1503525829.33,35254,16.44,73972.5,-4.33,-35.89,-36.25,0,*54
1503525830.58,35255,16.44,73970.8,-4.35,-35.65,-36.07,0,*51
1503525831.84,35256,16.44,73968.5,-4.35,-35.89,-36.13,0,*55
1503525833.07,35257,16.44,73974.3,-4.35,-35.71,-36.07,0,*56
1503525834.29,35258,16.44,73970.3,-4.29,-35.77,-36.19,0,*5D
1503525835.51,35259,16.44,73970.3,-4.33,-36.07,-36.43,0,*5C
1503525836.74,35260,16.44,73970.3,-4.33,-35.89,-36.37,0,*50
1503525837.98,35261,16.44,73970.8,-4.33,-35.65,-36.01,0,*56
1503525839.2,35262,16.44,73968.5,-4.33,-35.59,-35.89,0,*59
1503525840.42,35263,16.44,73970.8,-4.33,-35.59,-35.89,0,*58
1503525841.63,35264,16.44,73972.0,-4.33,-35.59,-36.07,0,*5A
1503525842.86,35265,16.44,73968.5,-4.33,-35.65,-36.07,0,*54
1503525844.07,35266,16.44,73970.5,-4.33,-35.89,-36.07,0,*55
1503525845.32,35267,16.44,73968.3,-4.33,-35.83,-36.01,0,*58
1503525846.56,35268,16.44,73972.8,-4.33,-35.89,-36.25,0,*5B
1503525847.8,35269,16.44,73968.5,-4.33,-35.83,-36.19,0,*5F
1503525849.04,35270,16.44,73972.3,-4.33,-35.83,-36.19,0,*57
1503525850.32,35271,16.44,73972.0,-4.35,-35.65,-36.13,0,*52
1503525851.55,35272,16.44,73970.5,-4.35,-35.71,-36.07,0,*51
1503525852.78,35273,16.44,73968.3,-4.33,-35.77,-36.01,0,*56
1503525854.0,35274,16.44,73972.0,-4.33,-35.47,-35.89,0,*51
1503525855.22,35275,16.44,73970.3,-4.33,-35.77,-36.19,0,*59
1503525856.45,35276,16.44,73970.0,-4.33,-35.83,-36.19,0,*51
1503525857.69,35277,16.44,73970.3,-4.29,-35.65,-36.07,0,*5C
1503525858.92,35278,16.44,73972.5,-4.33,-35.65,-36.19,0,*57
1503525860.16,35279,16.44,73970.0,-4.29,-35.83,-36.19,0,*55
1503525861.4,35280,16.44,73972.0,-4.33,-35.83,-36.07,0,*57
1503525862.61,35281,16.44,73968.3,-4.29,-35.89,-36.07,0,*57
1503525863.83,35282,16.44,73970.8,-4.33,-35.89,-36.19,0,*50
1503525865.07,35283,16.44,73970.3,-4.33,-35.41,-35.77,0,*5E
1503525866.28,35284,16.44,73970.3,-4.33,-35.77,-36.07,0,*58
1503525867.5,35285,16.5,73972.8,-4.33,-35.59,-36.01,0,*53
1503525868.71,35286,16.44,73970.0,-4.33,-35.77,-36.19,0,*55
1503525869.95,35287,16.44,73972.8,-4.33,-35.65,-35.89,0,*5D
1503525871.18,35288,16.44,73968.8,-4.33,-35.47,-35.89,0,*52
1503525872.4,35289,16.44,73970.8,-4.33,-35.47,-35.89,0,*53
1503525873.62,35290,16.44,73972.5,-4.33,-35.59,-35.89,0,*54
1503525874.84,35291,16.44,73970.8,-4.33,-35.59,-36.01,0,*56
1503525876.08,35292,16.44,73970.0,-4.33,-35.65,-36.01,0,*5A
1503525877.3,35293,16.44,73972.3,-4.33,-35.47,-35.89,0,*58
1503525878.54,35294,16.44,73970.8,-4.33,-35.65,-35.89,0,*5F
1503525879.76,35295,16.44,73972.3,-4.33,-35.77,-36.07,0,*58
1503525880.98,35296,16.44,73966.5,-4.29,-35.77,-36.19,0,*5F
1503525882.19,35297,16.44,73968.8,-4.29,-35.89,-36.19,0,*5F
1503525883.43,35298,16.44,73968.0,-4.33,-35.89,-36.25,0,*54
1503525884.65,35299,16.44,73972.0,-4.33,-35.89,-36.19,0,*5A
1503525885.87,35300,16.44,73972.8,-4.29,-35.59,-35.89,0,*57
1503525887.11,35301,16.44,73970.5,-4.29,-35.83,-36.07,0,*54
1503525888.36,35302,16.44,73970.5,-4.29,-35.89,-36.25,0,*5D
1503525889.6,35303,16.44,73968.5,-4.33,-35.83,-36.19,0,*52
1503525890.83,35304,16.44,73968.8,-4.33,-35.65,-36.01,0,*54
1503525892.05,35305,16.44,73970.3,-4.33,-35.77,-36.07,0,*50
1503525893.29,35306,16.44,73968.8,-4.33,-35.83,-36.07,0,*58
1503525894.53,35307,16.44,73970.8,-4.33,-35.83,-36.19,0,*56
1503525895.77,35308,16.44,73970.3,-4.33,-35.65,-36.01,0,*58
1503525896.98,35309,16.44,73966.5,-4.33,-35.89,-36.07,0,*5D
1503525898.19,35310,16.44,73970.3,-4.33,-35.89,-36.19,0,*5A
1503525899.43,35311,16.44,73968.3,-4.33,-35.89,-36.25,0,*54
1503525900.65,35312,16.44,73970.8,-4.33,-35.89,-36.19,0,*58
1503525901.89,35313,16.44,73968.0,-4.33,-36.01,-36.25,0,*55
1503525903.16,35314,16.44,73970.8,-4.33,-35.83,-36.25,0,*5B
1503525904.37,35315,16.44,73972.0,-4.33,-35.77,-36.19,0,*5E
1503525905.63,35316,16.44,73974.0,-4.29,-35.41,-35.65,0,*5B
1503525906.87,35317,16.44,73972.0,-4.33,-35.83,-36.19,0,*57
1503525908.09,35318,16.5,73972.0,-4.33,-35.59,-35.89,0,*55
1503525909.3,35319,16.44,73968.0,-4.33,-35.89,-36.07,0,*5C
1503525910.53,35320,16.44,73966.5,-4.35,-35.71,-36.07,0,*57
1503525911.75,35321,16.44,73970.0,-4.33,-35.89,-36.19,0,*58
1503525912.99,35322,16.44,73968.0,-4.29,-35.65,-36.01,0,*5B
1503525914.21,35323,16.44,73970.0,-4.33,-35.47,-35.77,0,*53
1503525915.42,35324,16.44,73972.3,-4.33,-35.59,-36.07,0,*5F
1503525916.63,35325,16.44,73968.0,-4.33,-35.77,-36.07,0,*52
1503525917.9,35326,16.44,73970.0,-4.33,-35.83,-36.25,0,*5A
1503525919.12,35327,16.44,73968.3,-4.33,-35.77,-36.07,0,*50
1503525920.36,35328,16.44,73968.8,-4.33,-35.83,-36.01,0,*52
1503525921.6,35329,16.44,73970.8,-4.35,-35.71,-36.07,0,*5E
1503525922.85,35330,16.44,73968.8,-4.35,-35.53,-36.07,0,*56
1503525924.08,35331,16.44,73968.0,-4.33,-35.65,-36.07,0,*54
1503525925.3,35332,16.44,73970.5,-4.33,-35.77,-36.07,0,*54
1503525926.54,35333,16.44,73970.3,-4.33,-35.89,-36.25,0,*54
1503525927.78,35334,16.44,73968.0,-4.33,-35.65,-36.01,0,*57
1503525929.0,35335,16.44,73970.5,-4.33,-35.59,-35.89,0,*5A
1503525930.24,35336,16.44,73970.0,-4.33,-35.89,-36.25,0,*51
1503525931.48,35337,16.44,73970.5,-4.33,-35.65,-36.01,0,*54
1503525932.7,35338,16.44,73970.5,-4.33,-35.77,-36.01,0,*58
1503525933.94,35339,16.44,73968.3,-4.33,-35.83,-36.07,0,*54
1503525935.18,35340,16.44,73968.0,-4.33,-35.83,-36.07,0,*5A
1503525936.43,35341,16.44,73968.3,-4.33,-35.83,-36.01,0,*5D
1503525937.72,35342,16.44,73970.0,-4.35,-35.83,-36.25,0,*5E
1503525939.01,35343,16.44,73968.3,-4.35,-35.95,-36.25,0,*58
1503525940.3,35344,16.44,73972.0,-4.35,-35.95,-36.13,0,*5A
1503525941.57,35345,16.44,73970.5,-4.35,-35.89,-36.13,0,*56
1503525942.8,35346,16.44,73970.8,-4.35,-35.71,-36.07,0,*57
1503525944.04,35347,16.44,73972.8,-4.35,-35.89,-36.07,0,*51
1503525945.27,35348,16.44,73970.5,-4.35,-35.71,-36.07,0,*59
1503525946.53,35349,16.44,73968.0,-4.35,-35.71,-36.13,0,*5D
1503525947.77,35350,16.44,73968.8,-4.35,-35.89,-36.07,0,*57
1503525949.0,35351,16.44,73970.5,-4.33,-35.83,-36.07,0,*5A
1503525950.22,35352,16.44,73974.3,-4.33,-35.89,-36.19,0,*5C
1503525951.5,35353,16.44,73970.5,-4.35,-35.65,-35.95,0,*5E
1503525952.75,35354,16.44,73970.5,-4.37,-35.35,-35.65,0,*51
1503525954.03,35355,16.44,73970.0,-4.35,-35.53,-35.83,0,*5A
1503525955.27,35356,16.44,73970.5,-4.35,-35.89,-36.07,0,*51
1503525956.52,35357,16.44,73970.3,-4.29,-35.89,-36.25,0,*5D
1503525957.73,35358,16.44,73968.8,-4.33,-35.89,-36.19,0,*56
1503525959.0,35359,16.44,73968.5,-4.33,-35.83,-36.25,0,*52
1503525960.23,35360,16.44,73972.0,-4.35,-35.71,-36.07,0,*53
1503525961.52,35361,16.44,73970.8,-4.35,-35.65,-35.95,0,*5F
1503525962.78,35362,16.44,73966.5,-4.35,-35.71,-36.13,0,*54
1503525964.07,35363,16.44,73968.3,-4.35,-35.95,-36.25,0,*5A
1503525965.34,35364,16.44,73972.3,-4.35,-36.07,-36.25,0,*55
1503525966.6,35365,16.44,73974.3,-4.35,-35.89,-36.13,0,*54
1503525967.86,35366,16.44,73968.8,-4.35,-35.47,-35.53,0,*52
1503525969.13,35367,16.44,73970.8,-4.35,-35.29,-35.53,0,*5B
1503525970.37,35368,16.44,73968.8,-4.33,-35.41,-35.77,0,*5A
1503525971.62,35369,16.44,73968.8,-4.33,-35.41,-35.65,0,*58
1503525972.84,35370,16.44,73970.5,-4.33,-35.47,-35.77,0,*55
1503525974.06,35371,16.44,73968.3,-4.33,-35.59,-35.89,0,*5A
1503525975.3,35372,16.44,73968.3,-4.33,-35.41,-35.47,0,*52
1503525976.54,35373,16.44,73968.0,-4.33,-35.23,-35.47,0,*57
1503525977.76,35374,16.44,73970.8,-4.33,-35.47,-35.77,0,*51
1503525978.98,35375,16.44,73966.8,-4.33,-35.29,-35.47,0,*5B
1503525980.2,35376,16.44,73966.8,-4.33,-35.47,-35.77,0,*53
1503525981.42,35377,16.44,73970.3,-4.29,-35.59,-36.01,0,*54
1503525982.65,35378,16.44,73970.3,-4.33,-35.83,-36.07,0,*51
1503525983.89,35379,16.44,73966.0,-4.33,-35.83,-36.07,0,*50
1503525985.13,35380,16.44,73968.0,-4.33,-35.65,-36.01,0,*58
1503525986.35,35381,16.44,73970.0,-4.33,-35.77,-36.07,0,*5C
1503525987.56,35382,16.44,73966.5,-4.33,-35.89,-36.19,0,*51
1503525988.8,35383,16.44,73968.0,-4.33,-36.01,-36.25,0,*5C
1503525990.05,35384,16.44,73970.5,-4.33,-35.89,-36.25,0,*58
1503525991.29,35385,16.44,73970.8,-4.33,-35.89,-36.25,0,*59
1503525992.53,35386,16.44,73970.3,-4.33,-36.01,-36.25,0,*59
1503525993.77,35387,16.44,73968.0,-4.33,-35.83,-36.19,0,*5E
1503525995.01,35388,16.44,73968.8,-4.33,-35.89,-36.37,0,*57
1503525996.27,35389,16.44,73972.0,-4.33,-35.83,-36.25,0,*5F
1503525997.5,35390,16.44,73970.0,-4.37,-35.95,-36.31,0,*51
1503525998.74,35391,16.44,73968.5,-4.37,-36.07,-36.25,0,*5D
1503525999.97,35392,16.44,73968.3,-4.35,-36.07,-36.31,0,*59
1503526001.24,35393,16.44,73970.3,-4.35,-35.89,-36.13,0,*5D
1503526002.48,35394,16.44,73968.0,-4.35,-36.07,-36.31,0,*5F
1503526003.76,35395,16.44,73970.3,-4.35,-35.53,-35.83,0,*56
1503526005.05,35396,16.44,73964.5,-4.35,-35.65,-35.95,0,*57
1503526006.34,35397,16.44,73970.8,-4.35,-35.95,-36.13,0,*54
1503526007.6,35398,16.44,73970.0,-4.35,-35.95,-36.31,0,*5B
1503526008.83,35399,16.44,73968.0,-4.37,-36.13,-36.31,0,*55
1503526010.08,35400,16.44,73970.0,-4.37,-35.95,-36.25,0,*5A
1503526011.35,35401,16.44,73970.0,-4.35,-35.89,-36.25,0,*54
1503526012.64,35402,16.44,73970.8,-4.35,-35.83,-36.13,0,*58
1503526013.86,35403,16.44,73972.3,-4.37,-35.89,-36.13,0,*51
1503526015.09,35404,16.44,73970.5,-4.37,-35.89,-36.25,0,*53
1503526016.33,35405,16.44,73966.8,-4.37,-35.71,-35.95,0,*5D
1503526017.55,35406,16.44,73970.8,-4.37,-35.89,-36.13,0,*54
1503526018.84,35407,16.44,73968.3,-4.35,-35.95,-36.13,0,*5A
1503526020.04,35408,16.44,73968.3,-4.37,-36.07,-36.43,0,*5A
1503526021.33,35409,16.44,73968.8,-4.35,-36.13,-36.49,0,*56
1503526022.53,35410,16.44,73970.0,-4.37,-36.07,-36.31,0,*56
1503526023.8,35411,16.44,73966.5,-4.35,-36.07,-36.25,0,*50
1503526025.06,35412,16.44,73970.5,-4.35,-36.13,-36.31,0,*53
1503526026.26,35413,16.44,73968.8,-4.37,-36.07,-36.31,0,*55
1503526027.48,35414,16.44,73966.8,-4.37,-35.83,-36.07,0,*58
1503526028.74,35415,16.44,73968.5,-4.37,-35.95,-36.25,0,*5E
1503526029.94,35416,16.44,73970.8,-4.37,-36.07,-36.31,0,*50
1503526031.17,35417,16.44,73970.0,-4.37,-36.13,-36.43,0,*51
1503526032.4,35418,16.44,73968.5,-4.37,-36.07,-36.25,0,*5B
1503526033.65,35419,16.44,73970.8,-4.39,-35.71,-36.13,0,*53
1503526034.88,35420,16.44,73972.0,-4.37,-35.95,-36.31,0,*5D
1503526036.08,35421,16.44,73972.3,-4.37,-35.89,-36.31,0,*51
1503526037.31,35422,16.44,73970.5,-4.37,-35.95,-36.31,0,*5F
1503526038.51,35423,16.44,73964.5,-4.37,-35.71,-36.07,0,*51
1503526039.74,35424,16.44,73968.3,-4.37,-35.71,-35.95,0,*5E
1503526040.96,35425,16.44,73968.3,-4.37,-35.47,-35.65,0,*55
1503526042.16,35426,16.44,73966.8,-4.37,-35.47,-35.71,0,*53
1503526043.41,35427,16.44,73966.3,-4.37,-35.65,-35.95,0,*58
1503526044.65,35428,16.44,73964.8,-4.37,-35.71,-35.95,0,*52
1503526045.94,35429,16.44,73964.8,-4.35,-35.65,-35.95,0,*54
1503526047.14,35430,16.44,73964.0,-4.37,-35.89,-36.07,0,*54
1503526048.36,35431,16.44,73966.3,-4.37,-35.83,-36.07,0,*5F
1503526049.62,35432,16.44,73964.8,-4.37,-35.83,-35.95,0,*54
1503526050.85,35433,16.44,73964.8,-4.37,-35.83,-36.07,0,*5D
1503526052.05,35434,16.44,73964.0,-4.37,-35.71,-36.07,0,*57
1503526053.27,35435,16.44,73964.5,-4.37,-35.83,-36.07,0,*5B
1503526054.52,35436,16.44,73970.8,-4.37,-35.83,-36.13,0,*5D
1503526055.72,35437,16.44,73964.0,-4.37,-35.71,-36.07,0,*54
1503526056.92,35438,16.44,73964.0,-4.37,-35.71,-36.07,0,*5B
1503526058.17,35439,16.44,73962.8,-4.37,-35.65,-35.95,0,*57
1503526059.37,35440,16.44,73966.8,-4.37,-35.47,-35.71,0,*53
1503526060.66,35441,16.44,73966.8,-4.35,-35.65,-35.95,0,*5A
1503526061.91,35442,16.44,73970.8,-4.37,-35.83,-36.13,0,*5E
1503526063.14,35443,16.44,73968.0,-4.37,-35.83,-36.07,0,*5A
1503526064.4,35444,16.44,73966.3,-4.35,-35.89,-36.13,0,*50
1503526065.6,35445,16.44,73966.8,-4.37,-35.89,-36.07,0,*56
1503526066.8,35446,16.44,73964.5,-4.37,-35.71,-36.07,0,*52
1503526068.02,35447,16.44,73964.8,-4.37,-35.89,-36.13,0,*51
1503526069.25,35448,16.44,73964.8,-4.37,-35.89,-36.13,0,*5E
1503526070.47,35449,16.44,73966.5,-4.37,-35.89,-36.13,0,*5F
1503526071.7,35450,16.44,73964.8,-4.37,-35.89,-36.13,0,*57
1503526072.92,35451,16.44,73964.8,-4.39,-36.01,-36.31,0,*5B
1503526074.12,35452,16.44,73964.5,-4.37,-35.71,-36.07,0,*57
1503526075.38,35453,16.44,73968.0,-4.37,-35.65,-35.95,0,*5B
1503526076.61,35454,16.44,73966.5,-4.37,-35.71,-35.95,0,*59
1503526077.86,35455,16.44,73966.5,-4.37,-35.83,-36.13,0,*58
1503526079.06,35456,16.44,73966.8,-4.37,-35.71,-36.07,0,*53
1503526080.32,35457,16.44,73970.8,-4.37,-35.83,-35.95,0,*57
1503526081.56,35458,16.44,73966.5,-4.37,-35.53,-35.83,0,*52
1503526082.81,35459,16.44,73970.5,-4.37,-35.53,-35.83,0,*53
1503526084.06,35460,16.44,73966.8,-4.37,-35.65,-35.83,0,*5C
1503526085.34,35461,16.44,73964.3,-4.35,-35.35,-35.53,0,*57
1503526086.54,35462,16.44,73966.3,-4.37,-35.71,-36.07,0,*54
1503526087.83,35463,16.44,73964.0,-4.35,-35.53,-35.83,0,*58
1503526089.11,35464,16.44,73966.3,-4.35,-35.53,-35.83,0,*5F
1503526090.33,35465,16.44,73968.5,-4.37,-35.71,-36.13,0,*56
1503526091.58,35466,16.44,73968.8,-4.37,-35.95,-36.13,0,*5F
1503526092.85,35467,16.44,73966.8,-4.35,-35.83,-36.07,0,*5E
1503526094.04,35468,16.44,73966.5,-4.37,-35.71,-36.07,0,*5E
1503526095.3,35469,16.44,73968.8,-4.35,-35.47,-35.65,0,*5F
1503526096.56,35470,16.44,73964.8,-4.35,-35.47,-35.53,0,*52
1503526097.81,35471,16.44,73966.8,-4.37,-35.35,-35.53,0,*54
1503526099.1,35472,16.44,73964.8,-4.35,-35.53,-35.95,0,*5F